Merced, CA

6:25 PM PST on February 06, 2016 (GMT -0800)
Castle

Weather History for KMER - October, 2013

Change the Weather History Date:

Wednesday, October 16, 2013

  Actual Average (KMCE) Record (KMCE)
Temperature  
Mean Temperature 65 °F 64 °F  
Max Temperature 86 °F 79 °F 87 °F (2012)
Min Temperature 44 °F 49 °F 44 °F (2003)
Degree Days  
Heating Degree Days 0    
Month to date heating degree days  
Since 1 July heating degree days  
Cooling Degree Days 0    
Month to date cooling degree days  
Year to date cooling degree days  
Growing Degree Days 15 (Base 50)    
Moisture  
Dew Point 41 °F    
Average Humidity 63    
Maximum Humidity 93    
Minimum Humidity 14    
Precipitation  
Precipitation 0.00 in 0.02 in 0.04 in (2007)
Month to date precipitation 0.23  
Year to date precipitation 9.22  
Snow  
Snow 0.00 in - - ()
Month to date snowfall  
Since 1 July snowfall  
Since 1 September snowfall  
Snow Depth -    
Sea Level Pressure  
Sea Level Pressure 30.04 in    
Wind  
Wind Speed 2 mph (NNE)    
Max Wind Speed 8 mph    
Max Gust Speed -    
Visibility 10 miles    
Events      
T = Trace of Precipitation, MM = Missing Value Source: NWS Daily Summary

Daily Weather History Graph

Daily Weather History Graph

Search for Another Location

Airport or City:

Trip Planner

Search our weather history database for the weather conditions in past years. The results will help you decide how hot, cold, wet, or windy it might be!

Date:

Astronomy

Oct. 16, 2013 Rise Set
Actual Time 7:11 AM PDT 6:23 PM PDT
Civil Twilight 6:45 AM PDT 6:49 PM PDT
Nautical Twilight 6:14 AM PDT 7:19 PM PDT
Astronomical Twilight 5:44 AM PDT 7:50 PM PDT
Moon 5:04 PM PDT (10/16) 4:47 AM PDT (10/16)
Length of Visible Light 12h 04m
Length of Day
11h 11m
Waxing Gibbous, 94% of the Moon is Illuminated
Oct 16
Waxing Gibbous
Oct 18
Full
Oct 26
Last Quarter
Nov 3
New
Nov 9
First Quarter

Hourly Weather History & Observations

Time (PDT) Temp. Windchill Dew Point Humidity Pressure Visibility Wind Dir Wind Speed Gust Speed Precip Events Conditions
12:15 AM 50.0 °F - 44.6 °F 82% 30.01 in 10.0 mi South 3.5 mph - N/A   Clear
12:35 AM 50.0 °F - 44.6 °F 82% 30.01 in 7.0 mi SSE 3.5 mph - N/A   Clear
12:55 AM 48.2 °F - 44.6 °F 87% 30.01 in 7.0 mi Calm Calm - N/A   Clear
1:15 AM 48.2 °F - 44.6 °F 87% 30.02 in 8.0 mi Calm Calm - N/A   Clear
1:35 AM 48.2 °F - 44.6 °F 87% 30.02 in 10.0 mi Calm Calm - N/A   Clear
1:55 AM 48.2 °F - 42.8 °F 82% 30.03 in 10.0 mi SE 3.5 mph - N/A   Clear
2:15 AM 46.4 °F 45.2 °F 42.8 °F 87% 30.03 in 10.0 mi SE 3.5 mph - N/A   Clear
2:35 AM 48.2 °F - 42.8 °F 82% 30.03 in 10.0 mi Calm Calm - N/A   Clear
2:55 AM 48.2 °F - 42.8 °F 82% 30.03 in 10.0 mi Calm Calm - N/A   Clear
3:15 AM 48.2 °F - 44.6 °F 87% 30.03 in 10.0 mi Calm Calm - N/A   Clear
3:35 AM 48.2 °F - 42.8 °F 82% 30.03 in 10.0 mi Calm Calm - N/A   Clear
3:55 AM 46.4 °F - 42.8 °F 87% 30.03 in 10.0 mi Calm Calm - N/A   Clear
4:15 AM 46.4 °F - 42.8 °F 87% 30.04 in 10.0 mi Calm Calm - N/A   Clear
4:35 AM 44.6 °F - 41.0 °F 87% 30.04 in 10.0 mi Calm Calm - N/A   Clear
4:55 AM 46.4 °F - 41.0 °F 81% 30.04 in 10.0 mi Calm Calm - N/A   Clear
5:15 AM 46.4 °F - 39.2 °F 76% 30.05 in 10.0 mi Calm Calm - N/A   Clear
5:35 AM 46.4 °F - 41.0 °F 81% 30.05 in 10.0 mi Calm Calm - N/A   Clear
5:55 AM 44.6 °F - 39.2 °F 81% 30.06 in 10.0 mi Calm Calm - N/A   Clear
6:15 AM 44.6 °F - 41.0 °F 87% 30.06 in 10.0 mi North - - N/A   Clear
6:35 AM 44.6 °F 43.1 °F 42.8 °F 93% 30.07 in 10.0 mi SSE 3.5 mph - N/A   Clear
6:55 AM 44.6 °F 43.1 °F 42.8 °F 93% 30.07 in 10.0 mi SSE 3.5 mph - N/A   Clear
7:45 AM 46.4 °F 45.2 °F 41.0 °F 81% 30.09 in 10.0 mi Variable 3.5 mph - N/A   Clear
9:45 AM 66.2 °F - 37.4 °F 35% 30.11 in 10.0 mi Variable 4.6 mph - N/A   Clear
10:45 AM 71.6 °F - 37.4 °F 29% 30.11 in 10.0 mi Variable 4.6 mph - N/A   Clear
12:45 PM 80.6 °F - 37.4 °F 21% 30.08 in 10.0 mi Variable 4.6 mph - N/A   Clear
1:45 PM 84.2 °F - 33.8 °F 16% 30.05 in 10.0 mi Variable 4.6 mph - N/A   Clear
2:45 PM 84.2 °F - 33.8 °F 16% 30.04 in 10.0 mi Variable 3.5 mph - N/A   Clear
3:45 PM 86.0 °F - 32.0 °F 14% 30.02 in 10.0 mi Variable 3.5 mph - N/A   Clear
4:45 PM 84.2 °F - 30.2 °F 14% 30.01 in 10.0 mi Variable 3.5 mph - N/A   Clear
5:45 PM 80.6 °F - 35.6 °F 20% 30.01 in 10.0 mi North 6.9 mph - N/A   Clear
6:45 PM 69.8 °F - 37.4 °F 31% 30.01 in 10.0 mi North 6.9 mph - N/A   Clear
7:45 PM 66.2 °F - 39.2 °F 37% 30.02 in 10.0 mi NW 8.1 mph - N/A   Clear
8:45 PM 64.4 °F - 42.8 °F 45% 30.03 in 10.0 mi NW 8.1 mph - N/A   Clear
9:15 PM 62.6 °F - 41.0 °F 45% 30.03 in 9.0 mi North 5.8 mph - N/A   Clear
9:35 PM 60.8 °F - 42.8 °F 52% 30.03 in 10.0 mi North 5.8 mph - N/A   Clear
9:55 PM 60.8 °F - 42.8 °F 52% 30.03 in 9.0 mi North 5.8 mph - N/A   Clear
10:15 PM 60.8 °F - 42.8 °F 52% 30.04 in 10.0 mi North - - N/A   Clear
10:35 PM 60.8 °F - 44.6 °F 55% 30.03 in 10.0 mi North 3.5 mph - N/A   Clear
10:55 PM 57.2 °F - 42.8 °F 59% 30.03 in 10.0 mi North - - N/A   Clear
11:15 PM 57.2 °F - 44.6 °F 63% 30.04 in 9.0 mi North - - N/A   Clear
11:35 PM 57.2 °F - 44.6 °F 63% 30.04 in 10.0 mi North 3.5 mph - N/A   Clear
11:55 PM 55.4 °F - 44.6 °F 67% 30.04 in 10.0 mi North - - N/A   Clear